Temperature
30 31 31 32 32 32 32 32 32 32 32 31 31 31 31 29 28 28 27 26 25 24 23 22 22 21 20 20 20 20 20 19 19 19 18 18 18 18 18 18 18 18 17 17
30 31 32 32 31 31 31 31 32 32 31 31 31 31 31 30 29 28 27 26 25 25 24 22 22 21 21 20 20 20 20 20 19 19 19 18 18 18 18 18 18 18 17 17
30 31 31 31 31 31 31 31 31 31 31 31 31 31 31 31 29 28 27 27 26 25 24 23 22 22 21 21 20 20 20 20 20 19 19 18 18 18 18 18 18 18 18 18
31 31 30 30 31 31 31 32 31 31 31 31 31 31 31 31 30 30 28 27 26 25 25 23 22 22 21 21 21 20 20 20 20 19 19 18 18 18 18 18 18 18 18 18
30 30 30 30 31 31 31 31 31 31 31 31 31 31 32 32 31 31 30 28 27 26 25 24 23 22 22 21 21 20 20 20 20 20 19 19 18 18 18 18 18 18 18 18
30 30 30 30 31 31 31 30 30 30 31 30 31 31 31 32 32 31 31 29 27 27 26 24 23 23 22 21 21 20 20 20 20 20 19 19 19 19 18 18 18 18 18 18
29 30 30 30 30 30 30 30 29 29 30 30 31 30 31 32 32 31 31 29 28 27 26 25 24 23 22 21 21 20 20 20 20 20 19 19 19 19 19 18 18 18 18 18
29 29 30 30 30 30 30 30 29 29 30 31 30 30 32 32 31 30 29 29 28 27 26 25 24 23 22 22 21 21 20 20 20 20 20 20 19 19 18 18 18 18 18 18
29 29 30 29 30 30 30 30 31 30 30 30 31 31 31 31 30 30 29 28 27 27 26 25 24 23 22 22 21 21 20 20 20 20 20 20 20 19 19 18 18 18 18 18
29 28 29 29 29 29 30 30 30 30 28 28 30 30 31 30 30 30 30 28 27 26 26 25 24 23 22 22 21 21 20 20 20 20 20 20 20 20 19 19 18 18 18 18
28 28 28 29 29 29 29 29 29 30 29 29 29 30 32 31 30 30 29 28 27 26 26 25 24 23 22 22 21 21 20 20 20 20 20 20 20 20 20 19 19 18 18 18
27 28 28 28 29 29 29 29 29 28 28 28 29 30 31 30 30 29 28 27 26 25 25 24 23 23 22 22 21 21 20 20 20 20 20 20 20 19 19 19 19 18 18 18
26 27 26 27 28 28 28 28 29 29 29 28 28 30 30 30 29 28 27 26 25 24 24 23 23 22 22 21 21 20 20 20 20 19 19 19 19 19 19 19 18 18 18 18
25 26 27 27 28 28 27 28 28 28 28 28 29 29 30 29 28 27 26 25 24 23 23 23 22 21 21 21 20 20 20 20 19 19 19 19 19 19 19 18 18 18 18 18
25 26 26 27 27 28 28 28 27 27 28 28 29 29 29 28 27 26 24 24 23 23 22 22 21 21 20 20 20 20 20 19 19 19 19 19 19 19 18 18 18 18 18 17
25 25 25 25 26 27 27 27 27 27 28 28 28 28 29 27 25 24 23 23 23 22 22 21 21 20 20 20 20 19 19 19 19 19 19 19 19 19 18 18 18 18 18 17
24 24 24 25 26 26 26 27 27 27 27 27 27 27 27 26 25 23 23 23 22 22 21 20 20 20 19 19 19 19 19 19 19 19 18 18 18 18 18 18 18 18 17 17
23 23 24 25 24 23 27 27 27 26 26 27 26 26 25 24 22 22 22 21 21 21 20 20 19 19 19 19 19 19 18 18 18 18 18 18 18 18 17 17 17 17 17 17
23 22 23 24 24 25 26 25 25 25 25 25 25 24 23 22 22 22 20 20 19 19 19 19 19 19 19 18 18 18 18 18 18 18 18 18 18 17 17 17 17 16 16 16
22 22 22 23 22 23 25 25 24 24 24 24 23 23 22 22 23 22 19 18 18 18 18 18 18 18 18 18 18 18 18 18 17 17 17 17 17 17 16 16 16 16 16 16
21 21 22 22 22 24 24 23 23 23 23 22 22 21 21 21 21 19 18 18 17 17 17 17 17 17 17 17 17 17 17 17 17 17 17 17 16 16 16 16 16 16 15 15
22 22 21 22 22 23 23 22 22 22 21 21 20 20 19 19 18 18 17 17 17 17 17 17 17 17 17 17 17 16 16 16 16 16 16 16 16 16 15 15 15 15 15 14
21 22 22 22 22 21 20 20 20 19 20 19 19 19 18 18 17 17 17 17 16 16 16 16 16 16 16 16 16 16 16 16 16 15 15 15 15 15 15 15 15 14 14 14
20 19 20 20 21 20 19 19 18 18 18 18 18 18 17 17 17 16 16 16 16 16 15 15 15 16 16 15 15 15 15 15 15 15 15 15 15 14 14 14 14 14 14 14
19 19 19 19 20 19 18 18 17 17 17 17 17 17 17 16 16 16 16 16 15 15 15 15 15 15 15 15 15 15 15 15 15 14 14 14 14 14 13 13 13 13 13 13
19 19 18 19 19 18 18 17 16 16 16 16 16 16 16 16 16 16 15 15 15 15 15 15 15 15 15 14 14 14 14 14 14 14 14 14 14 13 13 13 13 13 13 13
Wind_Speed
7 10 11 8 7 8 7 8 7 3 1 5 6 6 5 7 9 10 12 13 13 14 14 13 12 12 11 11 11 10 10 9 7 6 6 6 5 5 4 4 5 5 4 4
9 13 9 5 5 8 9 10 8 4 2 5 7 7 7 9 11 11 12 13 14 14 14 14 14 13 13 13 12 11 11 10 9 7 6 5 5 5 5 4 4 5 4 4
14 7 5 8 9 10 11 11 9 7 4 7 8 9 8 9 10 10 11 12 13 14 16 16 15 15 14 13 13 12 12 12 11 9 7 6 5 5 5 5 5 5 5 5
12 9 7 10 11 11 12 8 8 8 9 8 7 9 8 8 10 11 11 12 13 14 15 16 16 16 16 15 13 13 12 12 11 11 9 9 7 6 6 5 5 5 5 5
10 9 11 13 12 10 9 5 7 9 11 11 10 10 7 7 9 10 11 12 13 14 15 16 17 17 16 15 14 13 13 12 12 12 11 10 9 7 6 5 5 5 5 6
9 6 8 10 9 9 7 6 7 9 11 13 11 11 9 6 7 7 8 10 11 12 14 15 15 16 16 15 15 14 14 13 13 13 12 11 10 8 7 7 6 6 5 5
10 10 8 7 9 9 10 10 8 9 10 11 6 10 9 4 4 5 5 7 9 11 12 13 15 16 16 17 16 15 15 14 14 13 12 12 11 10 9 8 7 6 5 5
10 10 10 9 11 10 12 14 12 11 11 9 6 10 6 3 3 4 4 5 6 9 11 12 14 15 15 17 17 16 16 14 14 13 12 11 11 9 8 8 7 7 5 5
7 7 6 7 9 11 11 13 12 13 14 13 9 8 7 6 6 5 4 3 4 6 8 9 11 13 14 15 16 16 15 14 14 13 12 11 11 10 9 8 8 7 6 5
6 6 6 6 7 8 10 9 9 12 11 13 12 12 9 6 6 5 4 3 3 5 7 9 9 11 12 13 14 15 15 14 14 13 12 11 11 10 9 9 8 7 6 5
8 8 7 7 9 10 9 10 10 10 12 13 13 8 2 4 4 4 3 2 2 3 5 7 8 9 11 12 13 14 14 14 13 13 12 11 11 10 10 9 8 8 7 7
7 8 9 9 6 6 10 11 12 11 11 12 13 10 1 2 3 3 3 2 1 2 3 5 7 8 9 11 12 12 13 13 13 12 12 11 10 10 10 9 9 8 8 8
4 6 8 10 9 8 9 11 12 12 12 13 15 10 2 2 3 3 3 2 2 2 3 4 6 7 8 9 10 11 12 12 12 12 12 11 11 11 10 9 9 9 8 8
5 9 11 12 8 7 10 12 12 14 14 15 16 15 8 6 5 4 4 3 3 3 3 4 5 6 7 7 9 10 10 10 11 11 12 12 12 11 11 10 9 9 9 8
5 9 11 12 10 11 13 14 14 16 17 17 16 15 11 7 6 5 5 4 4 4 4 4 5 6 7 7 8 9 9 10 10 11 11 11 11 10 10 9 9 9 9 9
5 7 9 12 11 12 15 15 15 17 16 17 16 15 9 5 4 4 5 5 5 5 5 5 5 6 7 7 8 8 9 9 10 10 11 10 10 10 10 9 9 9 9 9
6 7 9 12 9 11 15 13 14 14 13 14 14 10 6 5 4 5 5 5 5 5 4 5 5 5 6 7 7 7 7 8 9 10 10 10 10 10 10 9 9 9 9 9
8 8 8 10 8 14 7 2 7 10 10 9 9 7 5 5 5 4 4 3 3 3 3 3 3 4 5 5 6 6 6 7 8 9 9 9 9 9 9 9 8 8 7 7
8 9 8 9 13 14 8 4 6 8 9 6 7 5 4 4 4 4 2 3 3 3 2 2 2 2 3 4 5 5 5 5 7 8 8 8 8 8 8 8 8 7 6 6
7 9 10 10 12 13 6 2 3 7 10 2 4 5 5 4 6 4 3 4 3 2 1 1 1 2 3 3 4 5 4 4 5 6 7 7 7 7 7 7 6 6 6 6
10 9 13 15 14 11 2 1 4 9 5 2 4 5 6 6 6 4 4 3 3 2 1 1 2 2 2 3 4 4 4 4 4 4 5 6 6 6 6 6 5 6 5 5
11 10 11 12 14 10 2 2 5 5 4 5 6 5 5 5 4 4 3 3 3 2 2 2 2 2 2 2 3 3 3 2 2 3 5 5 5 5 5 5 5 5 5 5
9 7 7 8 6 3 3 4 5 6 7 7 7 6 6 6 5 3 3 2 2 2 2 2 3 3 2 2 2 3 2 2 3 3 4 4 5 4 4 5 5 5 5 4
6 5 7 8 7 5 6 6 6 7 8 8 7 6 6 6 5 4 3 2 2 3 3 3 3 3 3 2 2 2 2 2 3 3 3 4 5 5 5 4 4 4 4 4
8 6 8 11 9 8 7 6 6 7 8 7 6 6 5 5 5 4 3 3 2 3 2 3 3 3 3 3 2 1 2 3 3 3 3 4 4 4 5 4 3 4 2 2
9 9 10 10 7 7 8 8 8 8 7 7 6 6 5 5 5 5 4 3 3 3 3 3 3 3 3 3 2 2 2 3 4 4 3 3 3 4 5 5 4 4 3 4
Wind_Direction
200 226 230 233 246 277 286 281 282 290 249 247 250 249 219 200 206 203 198 197 196 197 191 188 191 191 188 187 187 191 192 186 188 188 191 187 190 192 187 186 178 184 194 189
210 231 236 242 245 253 260 265 268 260 231 257 264 259 236 215 215 212 207 203 201 198 192 190 193 194 193 191 191 192 193 191 195 193 194 195 197 198 191 189 175 193 201 210
227 235 212 224 232 244 252 259 270 277 261 238 261 252 226 216 216 218 215 210 205 201 197 193 195 197 197 196 195 196 196 193 198 194 190 189 187 201 191 191 187 194 204 209
235 229 217 230 237 248 254 257 264 262 261 259 253 272 243 218 215 217 215 210 207 203 200 197 198 199 199 198 194 195 195 195 194 193 197 196 198 202 197 192 186 191 200 208
222 220 226 236 242 248 264 274 259 259 262 268 250 263 257 217 228 223 217 212 211 204 203 201 201 200 200 197 194 193 193 195 194 195 197 201 208 206 196 190 185 200 196 206
237 219 233 244 246 245 242 237 245 246 252 253 249 256 260 236 236 233 218 213 212 208 204 202 201 198 199 196 193 193 191 194 194 195 198 202 206 205 200 196 193 198 198 200
222 219 216 231 231 214 223 235 242 239 236 250 233 251 261 258 253 254 241 222 212 207 204 200 199 198 196 194 193 193 192 194 194 196 200 202 205 205 206 206 203 209 206 202
222 219 207 215 232 233 227 238 247 258 260 259 226 247 259 244 248 252 248 227 212 204 203 200 197 196 195 195 194 193 191 191 192 194 199 203 204 207 209 211 216 210 216 213
235 226 191 213 232 241 232 238 255 262 267 272 258 252 249 226 232 234 227 210 205 200 199 196 193 193 194 196 195 193 190 190 192 194 195 199 203 208 209 205 212 215 215 214
250 244 214 202 214 224 249 247 243 249 256 260 258 251 250 235 239 235 229 219 206 199 195 191 189 190 192 194 194 193 191 193 193 194 197 197 200 203 206 208 208 211 210 213
247 241 224 210 221 223 216 228 239 250 254 260 265 262 258 246 245 247 240 233 211 193 186 186 184 186 188 188 188 189 190 193 194 195 196 198 196 198 201 203 206 207 207 205
229 243 242 234 228 255 238 236 234 245 249 254 266 269 241 252 266 263 268 257 219 190 186 184 181 180 185 188 188 189 191 192 193 192 193 195 194 195 198 201 206 207 209 210
220 236 237 229 209 211 231 234 240 249 255 254 257 261 184 220 259 266 272 260 226 202 193 188 183 183 185 188 189 189 192 189 190 189 191 193 196 195 198 200 202 207 210 212
244 243 247 252 255 237 236 238 238 244 251 255 257 268 267 262 269 278 277 263 240 225 212 203 193 190 186 186 188 188 189 187 188 190 191 193 197 197 197 198 200 203 208 212
240 245 251 262 269 261 251 248 244 246 255 262 267 270 278 284 281 272 268 260 245 233 221 211 204 196 191 189 188 188 189 190 191 191 193 195 195 195 197 199 202 203 207 211
242 254 255 255 256 256 255 252 247 248 253 259 267 268 286 301 284 266 256 249 242 238 230 223 211 202 200 199 195 188 192 191 191 195 196 195 193 194 197 198 199 203 206 212
235 242 254 255 251 257 249 245 244 244 249 258 264 276 297 289 280 269 261 251 249 246 236 232 227 213 206 203 197 192 193 193 192 196 196 195 195 197 200 201 200 204 208 211
234 242 246 257 251 248 254 255 253 253 254 264 271 281 292 299 295 285 274 264 264 261 247 239 231 214 205 199 190 189 187 192 196 197 196 193 195 199 202 205 206 208 209 211
232 230 243 246 249 253 243 231 244 250 252 263 270 278 291 303 279 254 274 284 265 255 242 243 236 216 191 186 181 178 180 186 193 196 196 196 195 199 201 204 206 207 209 213
208 222 236 240 251 252 245 183 258 260 244 243 272 274 278 274 264 263 292 284 272 251 219 212 197 175 163 168 169 169 173 176 186 193 192 192 193 194 199 202 201 202 206 214
207 216 232 241 246 251 266 296 254 244 262 325 290 276 267 267 287 297 282 270 248 228 198 185 157 148 150 156 159 162 165 176 185 186 181 185 187 187 195 194 198 200 203 206
231 230 229 238 243 243 53 270 256 292 320 301 297 288 280 283 288 278 270 247 220 204 186 174 154 145 146 154 159 161 163 165 167 173 177 184 188 192 188 184 192 197 196 197
238 254 250 241 253 330 320 290 298 298 291 291 290 287 274 272 269 263 257 236 218 197 186 188 171 155 158 169 172 172 165 166 165 166 171 177 184 188 189 190 188 194 199 203
242 265 260 259 256 277 287 292 294 298 296 291 284 278 268 262 259 255 248 236 210 197 193 192 176 166 169 174 175 181 171 162 158 160 170 172 174 179 179 187 191 200 201 200
269 255 253 258 268 277 273 284 290 297 296 293 286 277 267 258 258 254 236 232 220 201 200 193 180 174 176 173 170 183 169 165 165 165 174 177 173 171 170 172 177 192 188 193
247 251 257 266 279 281 286 298 296 293 292 290 285 281 272 259 256 244 229 226 218 212 205 192 176 169 163 157 164 180 176 172 172 173 181 184 177 171 173 167 154 87 98 96
Height
1502 1499 1496 1493 1494 1494 1495 1497 1498 1495 1494 1496 1496 1496 1497 1501 1505 1507 1510 1513 1517 1520 1523 1526 1529 1531 1533 1535 1536 1538 1540 1542 1543 1545 1546 1548 1549 1550 1551 1552 1553 1554 1555 1557
1500 1497 1492 1493 1495 1497 1497 1499 1496 1494 1494 1496 1495 1494 1493 1497 1500 1503 1506 1510 1513 1517 1520 1523 1526 1528 1530 1531 1533 1536 1538 1540 1542 1543 1545 1547 1548 1550 1551 1552 1552 1554 1555 1556
1495 1491 1493 1496 1497 1498 1496 1497 1495 1497 1494 1493 1496 1495 1491 1492 1497 1500 1503 1505 1509 1512 1515 1519 1522 1524 1527 1529 1531 1533 1536 1538 1540 1542 1544 1546 1547 1548 1550 1551 1552 1553 1554 1555
1491 1490 1494 1495 1495 1495 1496 1490 1494 1496 1498 1494 1495 1501 1488 1485 1490 1494 1497 1500 1504 1507 1511 1515 1517 1520 1523 1525 1528 1531 1533 1535 1538 1540 1542 1544 1546 1547 1548 1550 1551 1552 1552 1554
1490 1490 1493 1495 1492 1492 1492 1491 1493 1494 1495 1497 1493 1498 1487 1481 1486 1487 1490 1494 1498 1503 1506 1509 1512 1515 1519 1522 1525 1527 1530 1533 1535 1537 1540 1542 1544 1546 1547 1548 1550 1550 1551 1552
1487 1489 1490 1489 1489 1491 1491 1494 1493 1492 1492 1504 1493 1496 1491 1477 1480 1481 1484 1490 1494 1498 1502 1505 1508 1512 1515 1519 1522 1524 1526 1529 1532 1534 1537 1539 1541 1543 1545 1546 1548 1549 1550 1550
1491 1488 1488 1489 1490 1490 1491 1497 1504 1506 1503 1498 1486 1492 1485 1474 1476 1479 1482 1486 1490 1494 1497 1500 1504 1507 1510 1514 1517 1520 1523 1525 1528 1531 1534 1536 1538 1541 1542 1544 1546 1547 1548 1549
1492 1491 1485 1487 1488 1489 1488 1489 1503 1510 1503 1490 1488 1490 1477 1473 1477 1480 1482 1484 1487 1490 1492 1495 1499 1502 1506 1510 1513 1516 1518 1521 1524 1527 1530 1533 1535 1538 1540 1542 1544 1545 1546 1547
1486 1487 1481 1484 1485 1485 1486 1485 1480 1488 1491 1495 1485 1479 1474 1473 1475 1477 1479 1482 1484 1487 1489 1492 1495 1498 1502 1505 1508 1511 1514 1517 1520 1524 1527 1530 1532 1534 1537 1539 1540 1542 1543 1545
1483 1490 1481 1483 1484 1484 1482 1480 1484 1489 1503 1504 1490 1483 1477 1473 1473 1474 1476 1479 1482 1485 1487 1489 1492 1495 1498 1501 1505 1508 1511 1513 1516 1520 1523 1526 1528 1531 1533 1535 1537 1539 1540 1541
1483 1489 1484 1482 1484 1482 1485 1485 1484 1484 1485 1497 1497 1482 1463 1468 1470 1473 1475 1478 1480 1482 1484 1487 1489 1492 1495 1498 1501 1504 1507 1510 1513 1516 1519 1522 1525 1527 1529 1531 1533 1535 1537 1538
1485 1484 1486 1481 1477 1478 1478 1479 1482 1490 1491 1487 1489 1480 1462 1467 1470 1473 1475 1477 1480 1482 1483 1485 1487 1490 1492 1495 1498 1501 1504 1507 1509 1512 1515 1518 1521 1523 1526 1528 1530 1532 1533 1535
1486 1487 1493 1487 1484 1481 1480 1477 1477 1478 1482 1484 1486 1478 1463 1467 1470 1473 1475 1477 1479 1481 1482 1484 1485 1487 1489 1492 1495 1498 1501 1503 1506 1509 1512 1515 1517 1520 1522 1524 1527 1529 1530 1531
1488 1483 1486 1486 1477 1474 1479 1478 1476 1478 1479 1479 1476 1470 1465 1466 1470 1473 1475 1477 1478 1480 1481 1482 1484 1485 1487 1489 1492 1494 1497 1500 1503 1506 1508 1511 1513 1516 1519 1521 1523 1525 1527 1528
1485 1483 1480 1476 1473 1472 1474 1474 1474 1476 1473 1474 1469 1466 1463 1466 1470 1473 1475 1476 1477 1478 1480 1481 1482 1483 1485 1486 1488 1491 1494 1497 1500 1502 1505 1507 1510 1513 1515 1517 1519 1520 1522 1524
1485 1484 1482 1480 1475 1473 1473 1470 1470 1470 1469 1467 1466 1465 1462 1467 1470 1472 1474 1475 1475 1476 1478 1479 1480 1481 1482 1483 1486 1488 1491 1493 1496 1498 1501 1504 1506 1508 1510 1512 1514 1516 1517 1519
1482 1485 1485 1479 1473 1475 1475 1466 1465 1466 1464 1465 1465 1464 1465 1468 1470 1471 1472 1473 1473 1474 1476 1477 1478 1479 1480 1481 1483 1485 1487 1490 1492 1494 1497 1500 1502 1504 1506 1508 1509 1511 1512 1514
1485 1485 1482 1478 1480 1487 1464 1460 1461 1463 1462 1462 1463 1465 1468 1470 1471 1472 1472 1472 1472 1473 1474 1475 1475 1476 1477 1479 1480 1482 1484 1486 1488 1491 1493 1495 1498 1500 1502 1503 1505 1506 1508 1509
1481 1484 1481 1479 1479 1471 1463 1462 1463 1464 1464 1464 1465 1467 1469 1470 1469 1469 1471 1471 1471 1471 1472 1472 1473 1474 1475 1476 1477 1479 1481 1483 1485 1487 1489 1491 1493 1495 1497 1499 1500 1502 1503 1504
1480 1481 1481 1479 1483 1478 1461 1461 1464 1466 1466 1465 1467 1468 1468 1468 1465 1464 1469 1469 1469 1470 1470 1470 1471 1471 1472 1474 1475 1476 1478 1479 1481 1483 1485 1487 1489 1491 1492 1494 1496 1497 1498 1500
1477 1479 1479 1476 1476 1464 1460 1463 1465 1471 1466 1467 1467 1467 1467 1467 1466 1466 1466 1466 1467 1467 1467 1468 1468 1469 1470 1472 1473 1474 1476 1477 1478 1480 1482 1484 1486 1487 1488 1490 1491 1492 1494 1495
1470 1471 1474 1472 1474 1467 1463 1464 1465 1466 1467 1467 1466 1466 1466 1466 1465 1464 1463 1463 1464 1464 1465 1465 1466 1467 1469 1470 1471 1472 1473 1474 1476 1477 1478 1480 1482 1483 1485 1486 1488 1489 1490 1492
1468 1466 1463 1465 1466 1466 1466 1467 1468 1468 1467 1466 1465 1465 1465 1463 1462 1462 1461 1461 1462 1462 1463 1464 1465 1466 1467 1468 1469 1470 1471 1472 1473 1474 1475 1477 1479 1480 1481 1482 1484 1486 1487 1488
1467 1470 1468 1467 1463 1465 1467 1467 1467 1467 1465 1464 1463 1463 1462 1461 1460 1459 1459 1459 1459 1460 1461 1462 1463 1464 1465 1467 1468 1469 1469 1470 1471 1472 1473 1474 1476 1477 1478 1480 1482 1483 1484 1485
1468 1469 1466 1465 1464 1465 1465 1465 1465 1464 1463 1461 1460 1460 1459 1459 1458 1457 1457 1457 1458 1459 1459 1460 1461 1462 1463 1465 1466 1467 1467 1467 1468 1470 1471 1472 1474 1475 1476 1477 1479 1480 1481 1482
1467 1466 1466 1462 1463 1464 1464 1464 1463 1461 1460 1459 1458 1457 1456 1456 1455 1455 1455 1456 1456 1457 1458 1458 1459 1460 1462 1463 1464 1465 1465 1466 1467 1468 1469 1471 1472 1473 1474 1476 1477 1478 1479 1480